Regional Weather Roundup
Issued by NWS

Home | Current Version | Previous Version | Graphics & Text | Print | Product List | Glossary On
Versions: 1 2 3 4 5 6 7 8 9 10 11 12 13 14 15 16 17 18 19 20 21 22 23 24 25 26 27
000
ASUS45 KCYS 162310
RWRWY

WYOMING REGIONAL WEATHER ROUNDUP
NATIONAL WEATHER SERVICE CHEYENNE WY
400 PM MST SAT DEC 16 2017

NOTE:  "FAIR" INDICATES FEW OR NO CLOUDS BELOW 12,000 FEET
WITH NO SIGNIFICANT WEATHER AND/OR OBSTRUCTIONS TO VISIBILITY.

WYZ001-170000-
YELLOWSTONE NATIONAL PARK

CITY           SKY/WX    TMP DP  RH WIND       PRES   REMARKS
LK YELLOWSTONE   N/A     22  18  85 VRB3      29.86R
W YELLOWSTONE  NOT AVBL

$$
WYZ002>013-054>058-071-098>099-170000-
NORTHERN WYOMING

CITY           SKY/WX    TMP DP  RH WIND       PRES   REMARKS
JACKSON        FLURRIES  28  23  80 N7        29.86R WCI  21
CODY           FLURRIES  27  22  81 N12       29.92R WCI  17
GREYBULL       LGT SNOW  30  30 100 NW8       29.90R VSB 1   WCI  22
WORLAND        SNOW      32  32 100 N6        29.89R VSB 1/2 WCI  26
SHERIDAN       LGT SNOW  30  29  96 N6        29.98R FOG     WCI  24
BUFFALO        LGT SNOW  28  22  78 NW3       29.96R VSB 3/4
GILLETTE       LGT SNOW  29  26  89 NE8       29.95R VSB 3/4 WCI  21
HULETT         CLOUDY    32  25  74 NE7       29.97R WCI  26
NEWCASTLE      LGT SNOW  32  32 100 E3        29.94R

$$
WYZ014>020-022>026-101>103-170000-
CENTRAL WYOMING

CITY           SKY/WX    TMP DP  RH WIND       PRES   REMARKS
BIG PINEY      LGT SNOW  30  26  85 N8        29.80R FOG     WCI  22
PINEDALE       FLURRIES  30  27  86 NW8       29.80R WCI  23
DUBOIS         LGT SNOW  27  23  86 CALM      29.81R
LANDER         LGT SNOW  30  28  92 NW7       29.82R FOG     WCI  23
RIVERTON       LGT SNOW  29  28  96 E8        29.83R VSB 3/4 WCI  21
CASPER         LGT SNOW  29  26  89 NE13      29.86R FOG     WCI  19
DOUGLAS        CLOUDY    31  29  92 NE7       29.88R WCI  24

$$
WYZ021-027>030-104>119-170000-
SOUTHERN WYOMING

CITY           SKY/WX    TMP DP  RH WIND       PRES   REMARKS
EVANSTON       LGT SNOW  27  26  96 N13       29.82R FOG     WCI  16
FORT BRIDGER   CLOUDY    32  27  81 NW8       29.83R WCI  25
ROCK SPRINGS   CLOUDY    34  25  69 N9        29.78R WCI  27
DIXON          FAIR      32  20  61 E5        29.79S WCI  28
RAWLINS        FAIR      33  25  72 NE6       29.79R WCI  28
SARATOGA       FAIR      30  21  69 W6        29.78R WCI  24
LARAMIE        FAIR      30  18  60 SE10      29.78R WCI  21
CHEYENNE       FAIR      37  20  50 E8        29.82R WCI  31
TORRINGTON     MOCLDY    37  29  72 NE12      29.89R WCI  29
PINE BLUFFS    FAIR      36  23  60 MISG      29.85R

$$




USA.gov is the U.S. government's official web portal to all federal, state and local government web resources and services.